Tracking 28052 objects as of 24-Sep-2023
HD Live streaming from Space Station
objects crossing your sky now

ATLAS 5 CENTAUR R/B

Track ATLAS 5 CENTAUR R/B now!


NORAD ID: 51851
Int'l Code: 2022-021B
Perigee: 8,343.2 km
Apogee: 34,858.9 km
Inclination: 8.8 °
Period: 776.0 minutes
Semi major axis: 27972 km
RCS: Unknown
Launch date: March 1, 2022
Source: United States (US)
Launch site: AIR FORCE EASTERN TEST RANGE (AFETR)

Note: This is a ROCKET BODY
Your satellite tracking list
Your tracking list is empty




NASA's NSSDC Master Catalog

Two Line Element Set (TLE):
1 51851U 22021B   23267.14582559 -.00000159  00000-0  00000+0 0  9991
2 51851   8.8415 280.6533 4739665 284.1855  28.9630  1.85573758 10578
Source of the keplerian elements: AFSPC